Location: Dobr� Voda
(50.5085°N, 15.0040°E)
Time: 09:30:06
(UTC+00:00)

Daily predictions for brighter satellites

Satellite Brightness Start Highest point End
(mag) Time Altitude Azimuth Time Altitude Azimuth Time Altitude Azimuth
STARLINK-1237 3.6 19:40:21 10° SW 19:44:27 66° SSE 19:48:34 10° ENE
STARLINK-1218 4.1 19:43:05 10° W 19:47:13 66° N 19:51:22 10° ENE
STARLINK-1084 3.6 19:43:49 10° WNW 19:47:59 80° SSW 19:52:08 10° ESE
Cosmos 1674 Rocket 3.9 19:44:13 10° SSE 19:48:25 48° E 19:52:42 10° NNE
Meteor 2-4 Rocket 3.8 19:43:16 10° SSW 19:48:37 77° WNW 19:54:01 10° N
STARLINK-1202 3.6 19:45:18 10° WSW 19:49:26 70° SSE 19:53:34 10° ENE
NOSS 2-2 (E) 4.1 19:47:20 10° S 19:50:23 26° ESE 19:53:46 10° ENE
EXPRESS MD2 4.1 19:48:29 10° SSW 19:51:21 32° SE 19:56:16 10° E
Cosmos 1378 Rocket 4.1 19:47:17 10° SSE 19:51:23 40° E 19:55:29 10° NNE
STARLINK-1254 4.1 19:48:05 10° W 19:52:12 65° N 19:56:21 10° ENE
SL-27 R/B 4.5 19:49:45 10° N 19:52:23 19° NE 19:54:59 10° E
Cosmos 1833 Rocket 3.9 19:47:25 10° NW 19:52:32 37° WSW 19:57:38 10° S
STARLINK-1098 3.6 19:48:48 10° WNW 19:52:57 77° SSW 19:57:06 10° ESE
Cosmos 2297 4.0 19:49:56 10° S 19:55:19 47° ESE 20:00:47 10° NE
Cosmos 1943 Rocket 3.4 19:51:41 10° SSE 19:55:56 23° ESE 20:00:13 10° NE
STARLINK-1231 4.1 19:53:04 10° W 19:57:12 64° N 20:01:19 10° ENE
STARLINK-1123 3.7 19:53:46 10° WNW 19:57:54 73° SSW 20:02:02 10° ESE
Cosmos 2082 Rocket 2.9 19:53:48 10° NW 19:59:21 52° WSW 20:04:50 10° S
STARLINK-1246 3.6 19:55:15 10° WSW 19:59:23 77° SSE 20:03:33 10° ENE
IGS 5A 3.5 19:56:09 10° SSE 20:00:18 81° ENE 20:04:30 10° NNW
Cosmos 1452 Rocket 3.7 19:56:39 10° SSW 20:01:57 84° WNW 20:07:17 10° NNE
Intercosmos 24 4.3 19:58:27 10° NNW 20:01:58 54° W 20:05:38 10° S
STARLINK-1232 4.2 19:58:05 10° W 20:02:12 63° N 20:06:20 10° ENE
Cosmos 332 Rocket 3.8 19:57:18 10° SSW 20:02:13 81° ESE 20:07:08 10° NNE
BREEZE-M DEB 3.9 20:00:19 10° S 20:02:19 20° SE 20:05:44 10° E
STARLINK-1097 3.7 19:58:47 10° WNW 20:02:55 69° SSW 20:07:02 10° ESE
Landsat 7 3.9 19:58:33 10° SSE 20:03:19 87° ENE 20:08:07 10° NNW
STARLINK-1224 3.6 20:00:13 10° WSW 20:04:21 81° SSE 20:08:31 10° ENE
Meteor 1-23 Rocket 4.4 20:01:07 10° S 20:06:40 59° E 20:12:13 10° NNE
STARLINK-1208 4.2 20:03:03 10° W 20:07:10 62° N 20:11:18 10° ENE
STARLINK-1099 3.7 20:03:45 10° WNW 20:07:52 65° SSW 20:11:54 10° SE
Cosmos 1461 2.9 20:04:30 10° SSW 20:08:37 66° SE 20:13:00 10° NE
STARLINK-1225 3.6 20:05:12 10° WSW 20:09:21 85° SSE 20:13:31 10° ENE
SAR-Lupe-2 3.6 20:06:40 10° NNE 20:10:16 67° ESE 20:13:51 10° S
Cosmos 1975 Rocket 4.4 20:07:29 10° SE 20:10:58 24° E 20:14:31 10° NE
Cosmos 2369 Rocket 3.4 20:07:33 10° SSE 20:11:51 23° ESE 20:16:09 10° NE
STARLINK-1271 4.2 20:08:05 10° W 20:12:11 61° N 20:16:19 10° ENE
STARLINK-1104 3.8 20:08:44 10° WNW 20:12:50 62° SSW 20:16:40 11° SE
STARLINK-1212 3.6 20:11:11 10° WNW 20:14:15 54° N 20:17:19 10° E
STARLINK-1230 3.6 20:10:10 10° WSW 20:14:19 88° SSE 20:18:29 10° ENE
STARLINK-1105 3.6 20:11:39 10° WNW 20:14:43 54° N 20:17:46 10° E
NOSS 2-2 (C) 3.7 20:11:35 10° S 20:14:52 35° ESE 20:18:31 10° NE
CZ-4B DEB 4.3 20:11:56 10° SSE 20:15:12 81° ENE 20:18:34 10° NNW
STARLINK-1247 3.6 20:12:32 10° WNW 20:15:36 54° N 20:18:41 10° E
STARLINK-1227 3.6 20:13:02 10° WNW 20:16:06 54° N 20:19:09 10° E
STARLINK-1226 3.6 20:13:53 10° WNW 20:16:58 55° N 20:20:02 10° E
STARLINK-1154 4.2 20:13:04 10° W 20:17:11 61° N 20:21:18 10° ENE
STARLINK-1144 3.8 20:13:43 10° WNW 20:17:48 58° SSW 20:21:27 13° SE
STARLINK-1215 3.5 20:14:46 10° WNW 20:17:52 55° N 20:20:56 10° E
ATLAS 2AS CENTAUR R/B 4.2 20:13:24 10° SSE 20:19:03 22° ESE 20:24:43 10° ENE
STARLINK-1243 3.6 20:15:09 10° WSW 20:19:18 88° NNW 20:23:29 10° ENE
SPOT 5 3.2 20:14:18 11° SSE 20:19:24 68° ENE 20:24:45 10° N
STARLINK-1217 3.5 20:16:36 10° WNW 20:19:40 55° N 20:22:46 10° E
NOSS 3-2 (A) 4.1 20:12:25 10° NW 20:19:47 82° NE 20:27:48 11° SE
STARLINK-1229 3.5 20:17:31 10° WNW 20:20:35 56° N 20:23:41 10° E
STARLINK-1270 3.5 20:18:24 10° WNW 20:21:29 56° N 20:24:35 10° E
OPS 6432 4.4 20:18:41 10° NW 20:21:45 81° NE 20:24:59 14° SE
STARLINK-1197 4.2 20:18:02 10° W 20:22:09 60° N 20:26:16 10° ENE
NOSS 8 (F) 4.3 20:19:03 10° SW 20:22:11 77° NW 20:25:16 10° NE
STARLINK-1103 3.9 20:18:42 10° WNW 20:22:46 55° SSW 20:26:14 14° SE
STARLINK-1189 3.5 20:20:12 10° WNW 20:23:17 56° N 20:26:23 10° E
STARLINK-1188 3.5 20:21:07 10° WNW 20:24:12 57° N 20:27:18 10° E
STARLINK-1236 3.7 20:20:07 10° WSW 20:24:17 85° NNW 20:28:27 10° ENE
ERS-1 Rocket 3.0 20:19:40 11° SSE 20:24:36 84° ENE 20:29:41 10° NNW
STARLINK-1187 3.4 20:22:12 10° WNW 20:25:16 59° N 20:28:20 10° E
STARLINK-1191 3.4 20:23:33 10° WNW 20:26:38 57° N 20:29:42 10° E
STARLINK-1198 4.2 20:23:02 10° W 20:27:09 60° N 20:31:16 10° E
STARLINK-1221 3.4 20:24:31 10° WNW 20:27:35 58° N 20:30:40 10° E
STARLINK-1101 4.0 20:23:41 10° WNW 20:27:43 51° SSW 20:31:01 15° SE
STARLINK-1222 3.4 20:25:22 10° WNW 20:28:26 58° N 20:31:31 10° E
Okean 2 4.1 20:25:57 13° SSE 20:29:12 37° E 20:33:04 10° NNE
STARLINK-1214 3.4 20:26:15 10° WNW 20:29:20 58° N 20:32:25 10° E
Cosmos 1066 Rocket 4.1 20:24:23 10° S 20:29:46 84° E 20:35:09 10° NNE
USA 245 4.0 20:28:27 10° SSW 20:31:04 29° W 20:33:21 10° NW
USA 238 DEB 3.9 20:24:29 10° NW 20:31:42 90° ENE 20:38:25 13° SE
USA 238 3.9 20:24:35 10° NW 20:31:48 89° NE 20:38:32 13° SE
STARLINK-1199 4.2 20:28:03 10° W 20:32:10 60° N 20:36:17 10° E
STARLINK-1102 4.0 20:28:41 10° WNW 20:32:41 48° SSW 20:35:48 16° SE
Cosmos 968 Rocket 4.3 20:28:18 10° NNW 20:33:11 39° ENE 20:37:31 12° SE
Okean 1 Rocket 3.4 20:29:03 10° NNW 20:33:30 66° W 20:37:53 10° S
STARLINK-1228 3.4 20:30:20 10° WNW 20:33:49 70° NNE 20:37:19 10° E
Cosmos 1805 3.2 20:29:53 10° N 20:33:50 83° E 20:37:07 14° SSE
Cosmos 1470 4.2 20:30:39 10° NNE 20:33:53 25° ENE 20:36:30 13° ESE
STARLINK-1269 3.7 20:30:06 10° WSW 20:34:15 80° NNW 20:38:25 10° ENE
Resurs 01 Rocket 3.8 20:31:30 10° SW 20:34:55 21° W 20:38:21 10° NW
TSX-5 4.4 20:29:48 10° SW 20:35:14 77° WNW 20:39:25 10° NNE
Cosmos 2278 Rocket 3.9 20:30:01 10° WSW 20:35:16 37° NW 20:40:33 10° NNE
Nadezhda 4 Rocket 4.0 20:30:04 10° S 20:36:13 87° E 20:42:22 10° N
STARLINK-1210 4.2 20:33:02 10° W 20:37:09 60° N 20:41:16 10° E
STARLINK-1235 3.2 20:33:57 10° WNW 20:37:11 68° NNE 20:40:25 10° E
STARLINK-1111 4.1 20:33:40 10° WNW 20:37:38 45° SSW 20:40:34 17° SE
Cosmos 1455 Rocket 3.6 20:34:57 10° N 20:39:09 45° ENE 20:42:17 16° SE
STARLINK-1200 3.8 20:35:04 10° WSW 20:39:13 77° NNW 20:43:23 10° ENE
STARLINK-1219 4.2 20:38:01 10° W 20:42:08 60° N 20:46:15 10° E
STARLINK-1073 4.2 20:38:40 10° WNW 20:42:36 42° SSW 20:45:22 18° SSE
SL-8 R/B 4.3 20:38:24 10° W 20:42:54 41° SSW 20:46:16 17° SE
STARLINK-1192 3.8 20:40:05 10° W 20:44:13 75° NNW 20:48:23 10° ENE
ATLAS CENTAUR R/B 3.5 20:45:23 10° NNW 20:46:23 13° N 20:47:26 10° NE
STARLINK-1211 4.2 20:43:02 10° WNW 20:47:09 60° N 20:51:16 10° E
STARLINK-1121 4.3 20:43:40 10° WNW 20:47:33 40° SW 20:50:08 18° SSE
ATLAS 3B CENTAUR R/B 4.4 20:41:25 10° SW 20:47:45 16° SSW 20:50:57 13° S
Terra 1.8 20:44:22 15° SSE 20:48:17 87° ENE 20:53:05 10° NNW
SL-4 R/B 3.3 20:44:48 10° SSW 20:48:43 26° SE 20:52:42 10° E
Cosmos 1110 Rocket 4.1 20:43:41 10° SSW 20:48:53 83° WNW 20:54:05 10° NNE
STARLINK-1244 3.9 20:45:03 10° W 20:49:12 72° NNW 20:53:21 10° ENE
SPOT 1/Viking Rocket 4.4 20:45:36 10° S 20:50:32 46° W 20:55:31 10° NNW
Abrixas rocket 3.8 20:49:07 10° WSW 20:51:11 17° SSW 20:51:50 16° SSW
Cosmos 1842 3.6 20:48:51 18° SSE 20:51:30 47° E 20:55:15 10° NNE
CARTOSAT-1 4.0 20:47:49 13° S 20:51:37 57° W 20:55:54 10° NNW
STARLINK-1245 4.2 20:48:00 10° WNW 20:52:07 61° N 20:56:15 10° E
STARLINK-1106 4.4 20:48:41 10° WNW 20:52:32 37° SW 20:54:56 19° SSE
ERBS 4.4 20:50:32 10° WNW 20:53:30 30° NNW 20:56:30 10° NE
STARLINK-1138 3.9 20:50:03 10° W 20:54:12 70° NNW 20:58:21 10° ENE
STARLINK-1234 3.0 20:51:43 10° WNW 20:55:01 82° NNE 20:57:44 14° ESE
STARLINK-1233 4.1 20:52:59 10° WNW 20:57:06 61° N 21:01:13 10° E
STARLINK-1112 4.5 20:53:40 10° WNW 20:57:28 35° SW 20:59:42 20° SSE
STARLINK-1143 4.0 20:55:02 10° W 20:59:10 69° NNW 21:03:19 10° ENE
STARLINK-1209 2.9 20:57:41 10° WNW 21:00:59 89° NNE 21:03:26 17° ESE
STARLINK-1204 4.1 20:57:59 10° WNW 21:02:06 62° N 21:06:13 10° E
STARLINK-1241 4.0 21:00:04 10° W 21:04:12 67° N 21:08:20 10° ENE
Cosmos 1331 Rocket 4.3 21:00:34 10° SSW 21:05:42 68° WNW 21:10:55 10° NNE
Aureole 2 Rocket 4.3 21:03:54 10° WSW 21:06:32 25° WNW 21:09:04 10° N
Cosmos 1733 3.5 21:03:08 10° NNW 21:06:55 62° W 21:09:32 19° S
STARLINK-1238 4.1 21:02:59 10° WNW 21:07:07 63° N 21:11:14 10° E
STARLINK-1239 4.0 21:05:02 10° W 21:09:10 65° N 21:13:18 10° ENE
Meteor 1-21 4.4 21:07:51 17° S 21:12:04 60° E 21:17:35 10° NNE
STARLINK-1201 4.0 21:07:58 10° WNW 21:12:06 64° N 21:16:14 10° E
COSMOS 2455 4.1 21:09:45 18° SE 21:12:15 23° ESE 21:16:53 10° ENE
Cosmos 1378 4.1 21:09:58 10° SSW 21:13:32 44° WNW 21:17:08 10° N
STARLINK-1240 4.1 21:10:02 10° W 21:14:09 64° N 21:18:17 10° ENE
Cosmos 1486 Rocket 4.0 21:09:17 10° NNW 21:14:38 85° WSW 21:18:13 21° SSE
USA 215 3.6 21:08:17 10° E 21:14:47 66° NNE 21:21:16 10° WNW
Cosmos 1833 4.3 21:09:28 10° NNW 21:15:07 70° ENE 21:19:13 19° SE
Cosmos 1302 Rocket 4.0 21:10:28 10° SSW 21:15:45 83° ESE 21:21:06 10° NNE
Cosmos 1544 Rocket 3.5 21:11:38 10° N 21:16:00 77° E 21:18:39 23° SSE
Cosmos 1271 Rocket 3.4 21:14:22 24° SSE 21:16:12 40° E 21:19:55 10° NNE
MTI 3.7 21:13:54 10° NNE 21:17:03 83° WNW 21:18:58 22° SSW
STARLINK-1206 4.0 21:12:58 10° WNW 21:17:06 65° N 21:21:14 10° E
Cosmos 1242 Rocket 2.7 21:15:26 25° S 21:17:23 58° E 21:21:02 10° NNE
Spot 4 4.4 21:14:22 19° SE 21:17:36 48° ENE 21:22:16 10° N
STARLINK-1203 4.1 21:14:51 10° W 21:19:02 64° N 21:23:14 10° ENE
STARLINK-1216 4.1 21:15:01 10° W 21:19:08 63° N 21:23:15 10° ENE
STARLINK-60 3.6 21:20:10 31° SSE 21:20:36 33° SE 21:23:30 10° E
Cosmos 1092 Rocket 4.2 21:15:41 10° SSW 21:21:47 71° WNW 21:27:58 10° N
STARLINK-1205 4.0 21:17:57 10° WNW 21:22:05 66° N 21:26:13 10° E
NOSS 2-2 (D) 3.8 21:19:39 10° WSW 21:23:14 61° NW 21:27:27 10° NE
STARLINK-1237 4.1 21:20:01 10° W 21:24:08 62° N 21:28:15 10° ENE
CENTAUR R/B 3.2 21:16:19 10° NW 21:24:16 81° SW 21:31:08 18° SE
Cosmos 1707 3.3 21:24:35 26° SSE 21:26:18 42° E 21:29:59 10° NNE
STARLINK-1218 3.9 21:22:57 10° WNW 21:27:05 68° N 21:31:14 10° E
ATLAS 3B R/B 3.0 21:20:51 10° NW 21:27:34 66° NE 21:33:57 13° ESE
SL-27 R/B 3.2 21:24:17 10° NW 21:27:44 44° WSW 21:29:28 24° SSW
STARLINK-1202 4.1 21:25:01 10° W 21:29:08 61° N 21:33:15 10° ENE
NOSS 3-2 (C) 4.1 21:22:04 10° NW 21:29:28 70° SW 21:35:37 20° SSE
Cosmos 1726 3.0 21:27:36 10° N 21:31:08 38° ENE 21:32:50 24° SE
STARLINK-1254 3.9 21:27:56 10° WNW 21:32:05 69° NNE 21:36:13 10° E
ALOS 2 3.8 21:30:24 17° ESE 21:33:05 33° ENE 21:37:03 10° N
Cosmos 1867 3.6 21:28:55 10° NW 21:34:26 87° NE 21:38:07 21° SE
COSMOS 2487 3.2 21:32:05 10° N 21:35:25 42° ENE 21:37:03 24° ESE
STARLINK-1231 3.8 21:32:54 10° WNW 21:37:03 71° NNE 21:41:12 10° E
STARLINK-1246 4.2 21:35:01 10° W 21:39:08 60° N 21:43:15 10° ENE
Cosmos 1943 Rocket 2.5 21:33:37 10° SW 21:39:09 69° WNW 21:44:47 10° NNE
Cosmos 1992 Rocket 4.1 21:36:08 22° S 21:39:18 56° ESE 21:44:26 10° NNE
NOSS 3-4 (A) 3.7 21:36:32 18° S 21:40:42 48° ESE 21:46:45 10° NE
NOSS 3-4 (C) 3.7 21:36:40 18° S 21:40:49 47° ESE 21:46:52 10° NE
STARLINK-1232 3.8 21:37:54 10° WNW 21:42:03 73° NNE 21:46:12 10° E
SeaSat 1 2.9 21:37:20 10° NE 21:42:05 44° ESE 21:44:35 25° S
EO 1 Del DPAF 3.3 21:39:06 10° NNE 21:42:52 60° ESE 21:44:29 31° S
STARLINK-1224 4.2 21:40:01 10° W 21:44:07 60° N 21:48:14 10° E
STARLINK-1208 3.7 21:42:52 10° WNW 21:47:01 76° NNE 21:51:10 10° ESE
Cosmos 1975 Rocket 4.2 21:44:36 11° SW 21:48:37 40° WNW 21:52:48 10° N
STARLINK-1225 4.2 21:45:01 10° W 21:49:07 60° N 21:53:14 10° E
STARLINK-1212 2.9 21:47:03 10° WNW 21:50:07 58° SSW 21:50:47 45° SSE
STARLINK-29 4.4 21:51:40 23° ESE 21:51:40 23° ESE 21:53:22 10° E
STARLINK-1105 2.9 21:47:32 10° WNW 21:50:36 58° SSW 21:51:13 46° SSE
Meteor 2-10 3.9 21:45:48 10° NNW 21:50:53 84° ENE 21:53:43 27° SSE
STARLINK-1247 2.9 21:48:24 10° WNW 21:51:29 57° SSW 21:52:06 45° SSE
STARLINK-1227 2.9 21:48:54 10° WNW 21:51:58 57° SSW 21:52:33 46° SSE
STARLINK-1271 3.7 21:47:52 10° WNW 21:52:02 78° NNE 21:56:12 10° ESE
Cosmos 292 Rocket 3.9 21:48:20 15° SSW 21:52:20 77° WNW 21:57:14 10° NNE
BREEZE-M DEB (TANK) 3.1 21:41:12 10° WSW 21:52:42 74° S 21:56:04 10° E
STARLINK-1226 2.9 21:49:45 10° WNW 21:52:49 56° SSW 21:53:24 46° SSE
BREEZE-M DEB (TANK) 2.8 21:49:38 10° W 21:53:17 68° S 21:57:25 10° ESE
STARLINK-1215 2.9 21:50:39 10° WNW 21:53:43 55° SSW 21:54:16 46° SSE
STARLINK-1230 4.2 21:50:00 10° W 21:54:06 60° N 21:58:13 10° E
S3M 4.0 21:48:00 10° N 21:54:12 88° W 21:58:10 24° S
RESURS DK-1 4.0 21:53:57 18° ESE 21:54:25 18° ESE 21:57:16 10° ENE
Cosmos 2227 Rocket 4.2 21:49:55 10° NNW 21:54:28 24° NE 21:58:59 10° E
Cosmos 2369 Rocket 2.4 21:49:40 10° SW 21:55:20 71° WNW 22:01:01 10° NNE
STARLINK-1217 3.0 21:52:28 10° WNW 21:55:31 54° SSW 21:56:00 47° S
STARLINK-1229 3.0 21:53:23 10° WNW 21:56:27 53° SSW 21:56:54 47° S
STARLINK-1154 3.7 21:52:51 10° WNW 21:57:01 81° NNE 22:01:01 11° ESE
STARLINK-1270 3.0 21:54:16 10° WNW 21:57:20 52° SSW 21:57:45 47° S
STARLINK-1243 4.2 21:55:01 10° W 21:59:07 60° N 22:03:14 10° E
STARLINK-1189 3.0 21:56:04 10° WNW 21:59:08 51° SSW 21:59:29 47° S
STARLINK-1188 3.0 21:57:00 10° WNW 22:00:02 50° SSW 22:00:22 47° S
Cosmos 1340 Rocket 2.8 21:56:40 10° N 22:00:45 80° ENE 22:02:31 33° SSE
STARLINK-1187 3.2 21:58:06 10° WNW 22:01:05 45° SSW 22:01:14 44° SSW
ATLAS CENTAUR R/B 1.7 21:59:35 31° S 22:01:10 46° ESE 22:05:08 10° NE
STARLINK-1197 3.6 21:57:49 10° WNW 22:01:59 84° NNE 22:05:45 12° ESE
STARLINK-1191 3.0 21:59:26 10° WNW 22:02:27 48° SSW 22:02:39 47° SSW
Cosmos 1626 4.4 22:01:28 12° ESE 22:02:34 13° E 22:04:20 10° NE
Aureole 3 3.1 21:59:24 10° N 22:02:38 52° ENE 22:03:24 39° SE
STARLINK-1221 3.1 22:00:24 10° WNW 22:03:24 47° SSW 22:03:34 47° SSW
Thor Agena Rocket 3.6 21:58:18 10° NNE 22:03:38 85° WNW 22:07:11 21° SSW
STARLINK-1236 4.2 21:59:58 10° W 22:04:06 60° N 22:08:13 10° E
STARLINK-1222 3.1 22:01:14 10° WNW 22:04:15 47° SSW 22:04:23 46° SSW
STARLINK-1214 3.1 22:02:08 10° WNW 22:05:08 46° SSW 22:05:15 46° SSW
Cosmos 1025 Rocket 3.1 22:02:57 25° SSW 22:05:21 73° W 22:09:41 10° N
Cosmos 1908 3.9 22:02:08 10° N 22:05:49 44° ENE 22:07:22 28° SE
EXPRESS MD2 4.3 22:02:33 10° W 22:06:53 85° S 22:16:14 10° E
STARLINK-1198 3.6 22:02:47 10° WNW 22:06:58 87° NNE 22:10:32 14° ESE
Meteor 2-19 Rocket 4.5 22:03:38 25° S 22:07:21 69° E 22:13:27 10° NNE
Cosmos 1553 Rocket 4.4 22:01:28 10° NNW 22:07:36 55° W 22:11:43 21° SSW
BREEZE M DEB (TANK) 1.8 22:06:12 10° W 22:08:33 56° WSW 22:08:33 56° WSW
Cosmos 1656 Rocket 3.6 22:04:50 19° SSW 22:08:55 83° ESE 22:14:30 10° NNE
ATLAS 2AS CENTAUR R/B 3.0 22:01:01 10° SSW 22:08:59 76° SE 22:16:54 10° NE
Cosmos 1953 2.3 22:05:03 10° NNW 22:09:02 72° W 22:10:41 34° S
Cosmos 1470 4.0 22:06:32 10° NNW 22:10:00 31° W 22:11:51 20° SW
BREEZE-M DEB (TANK) 4.1 21:59:15 10° WNW 22:10:05 43° SW 22:11:56 29° S
STARLINK-1228 3.7 22:07:40 10° WNW 22:10:56 37° SSW 22:11:08 37° SSW
STARLINK-1199 3.5 22:07:47 10° WNW 22:11:58 90° SE 22:15:20 15° ESE
STARLINK-1235 3.7 22:10:23 10° W 22:13:12 35° SW 22:13:12 35° SW
APEX 4.4 22:07:13 10° SW 22:13:34 71° WNW 22:18:43 10° NNE
STARLINK-1269 4.1 22:09:58 10° WNW 22:14:06 61° N 22:18:13 10° E
Cosmos 2292 Rocket 3.0 22:13:24 39° SSE 22:14:30 66° E 22:17:39 10° NNE
Cosmos 968 Rocket 4.4 22:10:16 10° NW 22:14:56 35° WSW 22:17:31 22° SSW
STARLINK-1210 3.5 22:12:46 10° WNW 22:16:56 87° SSW 22:20:06 17° ESE
KORONAS-FOTON 4.4 22:17:21 33° SE 22:18:31 44° E 22:22:12 10° NNE
STARLINK-1200 4.1 22:14:57 10° WNW 22:19:04 62° N 22:23:11 10° E
Cosmos 1655 Rocket 4.1 22:15:01 22° SSW 22:19:18 77° W 22:25:36 10° N
SL-4 R/B 1.1 22:20:18 53° NW 22:20:18 53° NW 22:22:08 10° NNW
Cosmos 1777 Rocket 4.1 22:14:57 10° NNW 22:20:12 71° ENE 22:23:19 25° SE
STARLINK-1219 3.5 22:17:44 10° WNW 22:21:54 83° SSW 22:24:52 18° ESE
ATLAS 5 CENTAUR R/B 1.0 22:21:46 27° SW 22:23:25 71° SE 22:25:34 10° NE
STARLINK-1192 4.1 22:19:58 10° WNW 22:24:05 62° N 22:28:12 10° E
STARLINK-52 3.2 22:26:28 47° SE 22:26:28 47° SE 22:29:20 10° ENE
Terra 4.2 22:24:16 10° WSW 22:26:42 14° W 22:29:09 10° NW
Cosmos 2228 3.0 22:22:33 10° N 22:26:49 70° E 22:28:36 33° SSE
STARLINK-1211 3.5 22:22:44 10° WNW 22:26:54 79° SSW 22:29:40 20° ESE
Meteor 2-15 4.4 22:21:23 10° NNW 22:27:33 80° W 22:31:06 27° S
Cosmos 1726 Rocket 3.8 22:23:17 10° N 22:27:35 59° ENE 22:29:30 30° SE
SL-4 R/B 2.3 22:23:11 10° WSW 22:28:00 72° SSE 22:32:48 10° ENE
STARLINK-1244 4.1 22:24:56 10° WNW 22:29:03 63° N 22:33:11 10° E
ERBS 4.5 22:27:32 10° NW 22:30:28 28° N 22:33:24 10° ENE
Cosmos 1300 4.1 22:28:22 10° N 22:31:48 30° ENE 22:33:33 21° ESE
STARLINK-1245 3.5 22:27:42 10° WNW 22:31:52 76° SSW 22:34:26 22° ESE
Cosmos 921 Rocket 4.2 22:31:52 24° SE 22:33:07 28° E 22:36:52 10° NE
In-Cosmos 22 4.1 22:30:05 26° SSW 22:33:07 81° WNW 22:38:27 10° N
YAOGAN 11 4.5 22:31:51 27° SE 22:34:01 57° ENE 22:38:15 10° N
STARLINK-1138 4.0 22:29:56 10° WNW 22:34:04 64° N 22:38:11 10° E
Meteor 1-24 Rocket 4.4 22:33:05 24° SE 22:35:41 39° E 22:40:46 10° NNE
STARLINK-1233 3.5 22:32:40 10° WNW 22:36:49 72° SSW 22:39:11 24° SE
Cosmos 2266 Rocket 4.0 22:33:43 24° SSW 22:37:34 76° W 22:43:38 10° N
CZ-4C R/B 4.2 22:37:11 10° ESE 22:37:41 10° ESE 22:38:10 10° E
STARLINK-1143 4.0 22:34:54 10° WNW 22:39:01 66° N 22:43:10 10° E
STARLINK-1204 3.5 22:37:39 10° WNW 22:41:47 68° SSW 22:43:59 26° SE
SJ 16-02 3.1 22:39:31 10° N 22:43:20 27° NE 22:47:06 10° ESE
STARLINK-1241 3.9 22:39:55 10° WNW 22:44:03 67° N 22:48:12 10° E
STARLINK-1238 3.5 22:42:40 10° WNW 22:46:47 64° SSW 22:48:47 28° SE
Helios 1B rocket 3.8 22:45:12 10° NE 22:48:45 27° E 22:50:09 22° SE
STARLINK-1239 3.9 22:44:54 10° WNW 22:49:02 69° N 22:53:11 10° E
Cosmos 1674 2.7 22:48:20 39° SSW 22:49:38 76° W 22:53:27 10° N
STARLINK-1377 4.3 22:52:00 30° SE 22:52:00 30° SE 22:54:58 10° E
STARLINK-1201 3.6 22:47:38 10° WNW 22:51:45 61° SSW 22:53:33 31° SE
STARLINK-1240 3.9 22:49:52 10° WNW 22:54:01 71° NNE 22:58:09 10° E
STARLINK-1353 4.2 22:55:17 32° SE 22:55:17 32° SE 22:58:23 10° E
STARLINK-60 3.2 22:53:23 10° W 22:56:35 69° NNW 22:59:46 10° ENE
STARLINK-1206 3.6 22:52:38 10° WNW 22:56:43 57° SSW 22:58:21 33° SE
COSMOS 2455 2.9 22:52:50 17° SW 22:57:35 79° NW 23:03:40 10° NE
USA 215 3.3 22:52:57 18° SE 22:57:53 60° SW 23:04:23 10° WNW
Cosmos 2219 3.4 22:52:24 10° NNW 22:58:05 67° ENE 23:02:17 18° SE
STARLINK-1375 4.1 22:58:33 34° SE 22:58:33 34° SE 23:01:49 10° ENE
STARLINK-1216 3.8 22:54:50 10° WNW 22:59:00 73° NNE 23:03:08 10° E
STARLINK-1203 3.8 22:54:55 10° WNW 22:59:08 73° NNE 23:03:20 10° E
STARLINK-1352 4.0 23:01:56 34° SE 23:01:56 34° SE 23:04:58 10° E
STARLINK-1205 3.7 22:57:37 10° WNW 23:01:40 54° SSW 23:03:07 35° SSE
STARLINK-1350 4.0 23:01:49 36° SE 23:01:49 36° SE 23:05:15 10° ENE
Cosmos 2297 Rocket 2.6 22:56:44 10° NNW 23:02:21 61° NE 23:07:00 15° SE
Helios 1A 3.2 23:01:35 35° SSW 23:03:09 60° W 23:07:18 10° NNW
STARLINK-1237 3.8 22:59:49 10° WNW 23:03:59 75° NNE 23:08:08 10° E
Lacrosse 4 Rocket 3.3 23:02:13 10° NNW 23:06:04 29° NE 23:09:49 10° ESE
Cosmos 1726 4.1 23:03:26 10° NW 23:06:04 19° W 23:07:20 16° WSW
PSLV R/B 4.4 23:01:49 10° NNE 23:06:06 41° E 23:07:53 28° SSE
STARLINK-1218 3.8 23:02:37 10° WNW 23:06:39 50° SSW 23:07:55 36° SSE
Cosmos 1174 4.4 23:06:36 21° WSW 23:08:37 47° NW 23:12:29 10° NNE
STARLINK-1368 3.8 23:08:27 39° SSE 23:08:38 40° SSE 23:12:12 10° ENE
STARLINK-1202 3.7 23:04:49 10° WNW 23:08:59 77° NNE 23:13:08 10° ESE
ALOS 2 3.7 23:07:47 24° SW 23:09:26 32° W 23:13:23 10° NNW
Timation 2 Rocket 4.1 23:03:28 10° NW 23:09:40 59° WSW 23:12:54 27° S
Cosmos 2058 Rocket 3.0 23:05:37 10° NNW 23:10:05 81° W 23:11:58 34° S
COSMOS 2487 4.5 23:07:57 10° WNW 23:10:09 16° W 23:10:32 16° WSW
Cosmos 1455 4.4 23:07:26 10° NNE 23:10:10 19° ENE 23:12:53 10° ESE
STARLINK-1254 3.8 23:07:36 10° WNW 23:11:36 47° SSW 23:12:41 37° SSE
STARLINK-1369 3.7 23:11:48 41° SSE 23:12:06 42° SSE 23:15:42 10° ENE
Cosmos 1898 Rocket 4.4 23:07:38 10° NNW 23:12:47 46° ENE 23:17:35 12° SE
Meteor 1-29 4.4 23:10:06 10° NE 23:12:58 25° E 23:13:48 23° ESE
Cosmos 1626 Rocket 4.5 23:11:50 25° SE 23:13:42 37° E 23:17:44 10° NNE
CENTAUR R/B 4.4 23:07:54 10° WNW 23:14:17 26° WSW 23:18:17 18° SW
STARLINK-1372 3.7 23:15:07 42° S 23:15:34 44° SSE 23:19:12 10° ENE
STARLINK-1231 3.9 23:12:35 10° WNW 23:16:33 44° SSW 23:17:27 38° S
Starlink 7 placeholder 4.1 23:17:57 22° NE 23:17:57 22° NE 23:18:56 10° ENE
Meteor 2-5 Rocket 3.7 23:14:12 27° SSW 23:17:18 78° WNW 23:22:58 10° N
ATLAS 3B R/B 3.4 23:11:51 10° NW 23:18:00 37° WSW 23:21:10 25° SSW
STARLINK-1246 3.6 23:14:47 10° WNW 23:18:58 83° NNE 23:23:07 10° ESE
STARLINK-1378 3.6 23:18:28 42° S 23:19:03 46° SSE 23:22:42 10° ENE
SeaSat 1 3.7 23:15:01 10° NNE 23:19:32 37° NW 23:24:03 10° WSW
SL-14 R/B 3.1 23:19:11 40° S 23:20:30 86° E 23:24:22 10° N
STARLINK-1232 4.0 23:17:36 10° WNW 23:21:31 42° SW 23:22:15 38° S
FALCON 9 DEB 3.0 23:20:07 32° WSW 23:21:35 80° SSE 23:25:03 10° ENE
STARLINK-1379 3.6 23:21:51 42° S 23:22:33 49° SSE 23:26:14 10° ENE
STARLINK-1224 3.6 23:19:46 10° WNW 23:23:56 86° NNE 23:28:05 10° ESE
STARLINK-1329 3.6 23:23:14 42° S 23:24:00 50° SSE 23:27:42 10° ENE
Meteor 2-21 4.5 23:20:59 26° SSW 23:24:38 80° W 23:30:53 10° N
SL-16 R/B 3.9 23:20:54 10° ESE 23:26:23 35° ENE 23:31:55 10° N
STARLINK-1208 4.1 23:22:35 10° WNW 23:26:27 39° SW 23:27:00 37° SSW
STARLINK-29 3.1 23:24:02 16° W 23:26:27 72° NNW 23:29:40 10° ENE
STARLINK-1362 3.5 23:26:40 41° SSW 23:27:34 52° SSE 23:31:17 10° ENE
ATLAS CENTAUR R/B 1.0 23:26:22 10° WNW 23:28:37 80° SSW 23:32:59 10° SE
STARLINK-1225 3.5 23:24:45 10° WNW 23:28:55 89° N 23:33:05 10° ESE
Cosmos 1656 4.3 23:27:53 25° SSE 23:30:39 43° ESE 23:35:55 10° NE
STARLINK-1373 3.5 23:30:05 39° SSW 23:31:08 55° SSE 23:34:54 10° ENE
STARLINK-1271 4.1 23:27:37 10° WNW 23:31:26 36° SW 23:31:49 36° SSW
NOSS 3-4 (A) 4.3 23:25:45 10° WSW 23:31:37 50° NW 23:38:00 10° NE
NOSS 3-4 (C) 4.3 23:25:49 10° WSW 23:31:43 50° NW 23:38:06 10° NE
RESURS DK-1 2.8 23:29:48 25° SW 23:32:03 59° NW 23:36:10 10° NNE
STARLINK-1365 3.4 23:31:12 38° SSW 23:32:22 57° SSE 23:36:09 10° ENE
STARLINK-1230 3.5 23:29:44 10° WNW 23:33:54 88° SSW 23:38:04 10° ESE
STARLINK-1390 3.4 23:33:35 38° SSW 23:34:44 57° SSE 23:38:30 10° ENE
Cosmos 1697 Rocket 4.0 23:32:47 18° SSE 23:35:44 28° ESE 23:40:27 10° NE
Cosmos 2084 3.5 23:33:37 25° SW 23:36:13 81° NW 23:40:44 10° NE
Cosmos 1812 Rocket 4.0 23:31:53 10° N 23:36:20 59° ENE 23:38:55 24° SSE
STARLINK-1154 4.2 23:32:37 10° WNW 23:36:23 34° SW 23:36:35 34° SSW
Cosmos 1626 2.4 23:36:00 35° SW 23:37:19 57° WNW 23:41:01 10° N
BREEZE-M R/B 3.5 23:31:45 12° SW 23:37:39 48° SSE 23:41:04 10° E
STARLINK-1243 3.5 23:34:43 10° WNW 23:38:53 84° SSW 23:43:03 10° ESE
Cosmos 990 Rocket 4.2 23:33:51 10° NNW 23:39:08 72° ENE 23:43:10 17° SSE
Cosmos 2227 Rocket 2.2 23:33:34 10° NNW 23:39:18 89° WSW 23:43:29 19° SSE
Okean 1-7 Rocket 4.0 23:37:39 28° SW 23:39:49 56° WNW 23:44:18 10° N
ATLAS CENTAUR R/B 2.9 23:36:19 10° WSW 23:40:12 32° NW 23:43:52 10° NNE
STARLINK-1197 4.3 23:37:36 10° W 23:41:19 32° SW 23:41:21 32° SW
CZ-4 R/B 3.8 23:36:37 10° NNE 23:41:26 87° WNW 23:43:50 29° SSW
STARLINK-1236 3.5 23:39:41 10° WNW 23:43:51 81° SSW 23:48:00 10° ESE
STARLINK-1198 4.5 23:42:37 10° W 23:46:07 30° SW 23:46:07 30° SW
Cosmos 1602 Rocket 3.7 23:47:23 30° S 23:49:26 66° E 23:53:44 10° NNE
SL-08 ROCKET BODY 4.3 23:46:46 25° S 23:50:17 82° E 23:56:10 10° N
Cosmos 2285 Rocket 4.4 23:46:36 10° NNW 23:52:58 62° ENE 23:59:13 10° SE
STARLINK-1269 3.5 23:49:40 10° WNW 23:53:48 73° SSW 23:57:57 10° ESE
